• Processing (Info)

  • MPEC 2022-G52 : 2022 GG1

    The following Minor Planet Electronic Circular may be linked-to from your own Web pages, but must not otherwise be redistributed electronically.

    A form allowing access to any MPEC is at the bottom of this page.


    Read MPEC 2022-G51 Read MPEC 2022-G53


    M.P.E.C. 2022-G52                                 Issued 2022 April 4, 10:47 UT
    
         The Minor Planet Electronic Circulars contain information on unusual
             minor planets and routine data on comets.  They are published
        on behalf of Division F of the International Astronomical Union by the
              Minor Planet Center, Smithsonian Astrophysical Observatory,
                              Cambridge, MA 02138, U.S.A.
    
                 Prepared using the Tamkin Foundation Computer Network
    
                                  MPC@CFA.HARVARD.EDU
                URL https://www.minorplanetcenter.net/    ISSN 1523-6714
    
                                    2022 GG1                                 
    
    
    Observations:
         K22G01G  C2022 04 02.45803 15 59 26.04 -02 59 26.9          20.9 GVEG052703
         K22G01G  C2022 04 02.46331 15 59 33.72 -02 57 52.4          19.9 GVEG052703
         K22G01G* C2022 04 03.59320316 28 28.398+02 45 54.27         19.92wUEG052F52
         K22G01G  C2022 04 03.60463916 28 45.473+02 49 24.89         19.83wUEG052F52
         K22G01G  C2022 04 03.61605916 29 02.485+02 52 54.48         19.80wUEG052F52
         K22G01G  C2022 04 03.62746316 29 19.538+02 56 24.49         19.93wUEG052F52
         K22G01G 1C2022 04 04.03146 16 39 52.15 +04 58 44.6          20.5 VXEG052033
         K22G01G 1C2022 04 04.03186 16 39 52.73 +04 58 52.2          19.7 VXEG052033
         K22G01G 1C2022 04 04.03228 16 39 53.40 +04 58 59.9          20.2 VXEG052033
         K22G01G 1C2022 04 04.03274 16 39 54.10 +04 59 08.1          19.9 VXEG052033
         K22G01G KC2022 04 04.08460816 41 14.33 +05 15 06.8          20.7 GXEG052I93
         K22G01G KC2022 04 04.08829516 41 19.91 +05 16 14.4          20.3 GXEG052I93
         K22G01G KC2022 04 04.09197116 41 25.49 +05 17 21.3          19.7 GXEG052I93
         K22G01G mC2022 04 04.36857816 48 36.230+06 41 22.67         20.10GVEG052I52
         K22G01G mC2022 04 04.36882416 48 36.608+06 41 27.06         20.14GVEG052I52
         K22G01G mC2022 04 04.36907016 48 36.976+06 41 31.38         20.07GVEG052I52
         K22G01G mC2022 04 04.36931616 48 37.336+06 41 35.99         19.54GVEG052I52
    
    Observer details:
    033 Karl Schwarzschild Observatory, Tautenburg.  Observers S. Melnikov, C.
        Hoegner, U. Laux, F. Ludwig, B. Stecklum.  Measurer B. Stecklum.  1.34-m
        f/3 Schmidt + CCD.
    703 Catalina Sky Survey.  Observers J. K. Hogan, G. J. Leonard.  Measurers B.
        Gray, D. Rankin, F. C. Shelly.  0.68-m Schmidt + 10K CCD.
    F52 Pan-STARRS 2, Haleakala.  Observers J. Bulger, T. Lowe, A. Schultz, I.
        Smith.  Measurers K. Chambers, S. Chastel, T. de Boer, J. Fairlamb, H.
        Gao, M. Huber, C.-C. Lin, E. Magnier, Y. Ramanjooloo, R. Wainscoat, R.
        Weryk.  1.8-m Ritchey-Chretien + CCD.
    I52 Steward Observatory, Mt. Lemmon Station.  Observer R. A. Kowalski.
        Measurers E. J. Christensen, G. A. Farneth, J. B. Fazekas, D. C. Fuls, A.
        R. Gibbs, A. D. Grauer, H. Groeller, J. K. Hogan, R. A. Kowalski, S. M.
        Larson, G. J. Leonard, D. Rankin, R. L. Seaman, A. Serrano, F. C. Shelly,
        K. W. Wierzchos.
    I93 St Pardon de Conques.  Observer F. Losse.  0.40-m f/3.7 reflector + CCD.
    
    Orbital elements:
    2022 GG1                                                 Earth MOID = 0.0410 AU
    Epoch 2022 Jan. 21.0 TT = JDT 2459600.5                 Veres                   
    M 317.85980              (2000.0)            P               Q                  
    n   0.39246888     Peri.   47.40386     -0.52336630     +0.85011773             
    a   1.8475629      Node   191.46795     -0.84209980     -0.52644927             
    e   0.4893753      Incl.   17.02213     -0.13021382     -0.01228865             
    P   2.51           H   24.30          G   0.15           U   8                  
    Residuals in seconds of arc
    220402 703  0.4+  0.2-    220404 033  0.1-  0.2-    220404 I93  0.4+  0.4-
    220402 703  0.1-  0.1-    220404 033  0.5-  0.1+    220404 I52  0.0   0.0
    220403 F52  0.2-  0.1-    220404 033  0.0   0.1+    220404 I52  0.1+  0.0
    220403 F52  0.1+  0.1+    220404 033  0.0   0.1-    220404 I52  0.0   0.1-
    220403 F52 (0.3-  0.3-)   220404 I93  0.1-  0.5-    220404 I52  0.1-  0.0
    220403 F52  0.1+  0.1+    220404 I93  0.0   0.2-
    
    Ephemeris:
    2022 GG1                 a,e,i = 1.85, 0.49, 17                  q = 0.9434
    Date    TT    R. A. (2000) Decl.     Delta      r    Elong.  Phase     V
    2022 03 05    11 44 09.5 -32 48 36   0.2696  1.2098   139.6    32.1    23.2
    ...
    2022 03 20    12 39 40.9 -31 29 58   0.1386  1.1139   146.5    29.5    21.5
    ...
    2022 03 28    14 04 46.4 -22 45 15   0.08105 1.0681   148.8    29.0    20.3
    ...
    2022 04 03    16 13 11.7 -00 14 58   0.05850 1.0371   128.4    49.0    20.0
    2022 04 04    16 38 58.5 +04 50 45   0.05830 1.0322   122.2    55.1    20.2
    2022 04 05    17 04 41.8 +09 48 32   0.05929 1.0275   115.8    61.2    20.4
    ...
    2022 04 11    19 11 48.4 +29 10 13   0.08410 1.0013    87.1    88.0    22.0
    ...
    2022 04 19    20 38 15.4 +36 05 19   0.1383  0.9731    73.1    99.1    23.5
    ...
    2022 05 04    21 45 01.9 +38 08 57   0.2483  0.9448    68.3    97.6    24.7
    
    M. P. C. Staff               (C) Copyright 2022 MPC           M.P.E.C. 2022-G52
    


    Read MPEC 2022-G51 Read MPEC 2022-G53


    MPEC number:

    Enter an MPEC number in one of the following forms:

    • 1997-B01 (the full form)
    • J97B01 (the packed version of the full form)
    • B01 (the abbreviated form)